CZ-6A DEB, 55529

Orbit data source: Space-Track

CZ-6A DEB, 55529 is space debris in SSO originally from a launch on Fri, 11 Nov 2022 UTC launched from the Taiyaun Space Center, China (TSC). Debris objects in space refer to the collection of defunct objects orbiting the Earth. Examples of debris include non-operational satellites, rocket bodies, and fragments generated from explosions, collisions, or faulty payload assembly.

Loading next visibility...
Identifier
55529, 2022-151YB
Orbit
SSO
Country
Flag of CNCN / PRC
Related business
Manufacturer
SAST
Mission
Spacecraft
Bus & Motor
Unknown
Mass
Unknown
Launch date (UTC)
2022-11-11 (3 years ago)
Launch vehicle
Unknown
Launch site
Taiyaun Space Center, China (TSC)
Object type
Payload
Rocket body
Debris
Shape & HBR
Unknown shape, 0.1 m
Radar Cross Section
Small (<0.1 m²)

Expand to show TLE details & history
Last TLE update: 1 day ago

TLE from 1 day ago
0 CZ-6A DEB
1 55529U 22151YB  25348.59410021  .00006464  00000-0  13486-2 0  9995
2 55529  98.6343  33.8065 0093028 156.7382 203.8067 14.57564954157560
Epoch: 2025-12-14T14:15Z
TLE epoch observation values (Epoch: 2025-12-14T14:15:30.258Z)
Latitude
-0.00002°
Longitude
96.42565°
Altitude
764.38 km
Speed
7.44 km/s
True Right ascension
02h 15m 13s
True Declination
0° 00' 00"
Sunlit
Object was in full shadow at epoch
Visualization orbit readout
Latitude
Unknown
Longitude
Unknown
Altitude
Unknown
Speed
Unknown
Apparent Right ascension
Unknown
Apparent Declination
Unknown
Sunlit
N/A
Visualization observer readout
Local Sidereal Time
17:25:43
Azimuth
Unknown
Elevation
Unknown
Doppler factor
Unknown
Orbital elements
Apogee altitude
763.981 km
Perigee altitude
632.323 km
Semi-major axis
7,076.289 km
Eccentricity
0.0093
Inclination
98.6343°
RAAN
33.8065°
Arg. of periapsis
156.7382°
True anomaly
203.38093°
Mean anomaly
203.8067°
Eccentric anomaly
203.59337°
Mean motion
3.64615 °/min
Orbital period
98.73 mins
BSTAR
0.0013486
Loading maneuver chart data...
Computing Atmospheric mass density...
Loading historical data...
Loading historical data...
Loading historical data...
Loading historical data...
Loading historical data...
Loading historical data...
Loading historical data...

Documentation

Showing up to 5 results
|